GLO7683 SUMU-SBGL

Flight info

Callsign GLO7683
Flight time 2h 9m
Altitude 37000
Route CRR UM540 ITBEB UN857 AKNUB
Aircraft B738/M-SDE2E3FGHIRWXY/LB1

Departure

Time 2026-04-25 22:36
Airport Carrasco General Cesáreo L. Berisso International Airport (SUMU)

Arrival

Time 2026-04-26 00:45
Airport Rio Galeão – Tom Jobim International Airport (SBGL)
Time Latitude Longitude Altitude Speed Heading
2026-04-25 22:15 -34.83674 -56.01867 82 ft 0 kts 143°
2026-04-25 22:26 -34.83672 -56.01869 81 ft 3 kts 143°
2026-04-25 22:27 -34.83650 -56.01889 86 ft 4 kts 137°
2026-04-25 22:27 -34.83632 -56.01912 87 ft 4 kts 129°
2026-04-25 22:27 -34.83617 -56.01939 84 ft 4 kts 107°
2026-04-25 22:27 -34.83616 -56.01965 81 ft 2 kts 54°
2026-04-25 22:28 -34.83620 -56.01971 85 ft 0 kts 53°
2026-04-25 22:30 -34.83583 -56.01911 81 ft 11 kts 53°
2026-04-25 22:30 -34.83535 -56.01832 84 ft 12 kts 54°
2026-04-25 22:30 -34.83479 -56.01766 81 ft 11 kts 19°
2026-04-25 22:30 -34.83430 -56.01779 84 ft 11 kts 330°
2026-04-25 22:31 -34.83338 -56.01847 83 ft 12 kts 342°
2026-04-25 22:31 -34.83270 -56.01809 84 ft 11 kts 50°
2026-04-25 22:31 -34.83223 -56.01734 89 ft 11 kts 53°
2026-04-25 22:31 -34.83178 -56.01660 82 ft 11 kts 54°
2026-04-25 22:32 -34.83135 -56.01588 82 ft 10 kts 53°
2026-04-25 22:32 -34.83091 -56.01516 85 ft 11 kts 53°
2026-04-25 22:32 -34.83040 -56.01433 83 ft 13 kts 53°
2026-04-25 22:32 -34.82983 -56.01339 81 ft 14 kts 53°
2026-04-25 22:33 -34.82936 -56.01261 83 ft 12 kts 53°
2026-04-25 22:33 -34.82882 -56.01175 81 ft 13 kts 49°
2026-04-25 22:33 -34.82807 -56.01141 85 ft 5 kts 356°
2026-04-25 22:33 -34.82769 -56.01144 84 ft 5 kts 354°
2026-04-25 22:34 -34.82735 -56.01163 88 ft 6 kts 326°
2026-04-25 22:34 -34.82711 -56.01207 81 ft 7 kts 279°
2026-04-25 22:34 -34.82726 -56.01255 81 ft 0 kts 234°
2026-04-25 22:35 -34.82751 -56.01297 82 ft 33 kts 234°
2026-04-25 22:35 -34.83074 -56.01827 84 ft 121 kts 234°
2026-04-25 22:35 -34.83716 -56.02888 207 ft 181 kts 233°
2026-04-25 22:36 -34.84490 -56.04058 1347 ft 168 kts 226°
2026-04-25 22:36 -34.85255 -56.05091 2468 ft 168 kts 232°
2026-04-25 22:36 -34.85676 -56.06495 2868 ft 196 kts 271°
2026-04-25 22:36 -34.85226 -56.08157 3111 ft 224 kts 307°
2026-04-25 22:37 -34.83895 -56.09229 3563 ft 241 kts 344°
2026-04-25 22:37 -34.82216 -56.09126 4250 ft 249 kts 21°
2026-04-25 22:37 -34.80817 -56.07891 4869 ft 263 kts 44°
2026-04-25 22:37 -34.79525 -56.06220 5481 ft 276 kts 47°
2026-04-25 22:38 -34.78223 -56.04475 6325 ft 281 kts 46°
2026-04-25 22:38 -34.76888 -56.02705 7161 ft 286 kts 45°
2026-04-25 22:38 -34.75520 -56.00921 7983 ft 290 kts 45°
2026-04-25 22:38 -34.74118 -55.99121 8793 ft 296 kts 44°
2026-04-25 22:39 -34.72682 -55.97301 9616 ft 301 kts 43°
2026-04-25 22:39 -34.71211 -55.95455 10322 ft 309 kts 43°
2026-04-25 22:39 -34.69649 -55.93511 10568 ft 333 kts 43°
2026-04-25 22:39 -34.67996 -55.91459 11117 ft 345 kts 43°
2026-04-25 22:40 -34.66307 -55.89364 11883 ft 349 kts 42°
2026-04-25 22:40 -34.64596 -55.87244 12657 ft 353 kts 42°
2026-04-25 22:40 -34.62858 -55.85095 13402 ft 359 kts 41°
2026-04-25 22:40 -34.61094 -55.82917 14108 ft 364 kts 41°
2026-04-25 22:41 -34.59310 -55.80717 14848 ft 366 kts 41°
2026-04-25 22:41 -34.57516 -55.78505 15575 ft 369 kts 41°
2026-04-25 22:41 -34.55712 -55.76284 16335 ft 370 kts 41°
2026-04-25 22:41 -34.53904 -55.74057 17121 ft 371 kts 40°
2026-04-25 22:42 -34.52080 -55.71815 17779 ft 376 kts 40°
2026-04-25 22:42 -34.50228 -55.69542 18397 ft 381 kts 40°
2026-04-25 22:42 -34.48357 -55.67245 18971 ft 385 kts 40°
2026-04-25 22:42 -34.46487 -55.64951 19493 ft 391 kts 39°
2026-04-25 22:43 -34.44564 -55.62592 20006 ft 396 kts 39°
2026-04-25 22:43 -34.42616 -55.60204 20543 ft 401 kts 39°
2026-04-25 22:43 -34.40644 -55.57786 21063 ft 406 kts 39°
2026-04-25 22:43 -34.38649 -55.55342 21603 ft 411 kts 38°
2026-04-25 22:44 -34.36630 -55.52873 22118 ft 415 kts 38°
2026-04-25 22:44 -34.34579 -55.50380 22588 ft 420 kts 36°
2026-04-25 22:44 -34.32439 -55.47960 23074 ft 422 kts 33°
2026-04-25 22:44 -34.30228 -55.45601 23545 ft 425 kts 32°
2026-04-25 22:45 -34.27982 -55.43258 23917 ft 428 kts 31°
2026-04-25 22:45 -34.25717 -55.40904 24308 ft 430 kts 31°
2026-04-25 22:45 -34.23447 -55.38533 24705 ft 433 kts 31°
2026-04-25 22:45 -34.21166 -55.36139 25063 ft 435 kts 31°
2026-04-25 22:46 -34.18877 -55.33728 25441 ft 438 kts 31°
2026-04-25 22:46 -34.16578 -55.31298 25806 ft 439 kts 31°
2026-04-25 22:46 -34.14270 -55.28857 26128 ft 443 kts 31°
2026-04-25 22:46 -34.11943 -55.26399 26445 ft 446 kts 31°
2026-04-25 22:47 -34.09606 -55.23929 26841 ft 447 kts 31°
2026-04-25 22:47 -34.07264 -55.21454 27203 ft 449 kts 31°
2026-04-25 22:47 -34.04903 -55.18963 27498 ft 452 kts 31°
2026-04-25 22:47 -34.02525 -55.16457 27812 ft 455 kts 31°
2026-04-25 22:48 -34.00131 -55.13934 28153 ft 457 kts 31°
2026-04-25 22:48 -33.97731 -55.11408 28443 ft 460 kts 31°
2026-04-25 22:48 -33.95313 -55.08866 28715 ft 462 kts 31°
2026-04-25 22:48 -33.92918 -55.06348 29000 ft 465 kts 30°
2026-04-25 22:49 -33.90477 -55.03785 29301 ft 467 kts 30°
2026-04-25 22:49 -33.88023 -55.01209 29499 ft 470 kts 30°
2026-04-25 22:49 -33.85543 -54.98611 29696 ft 474 kts 30°
2026-04-25 22:49 -33.83047 -54.95997 29974 ft 476 kts 30°
2026-04-25 22:50 -33.80547 -54.93379 30229 ft 478 kts 30°
2026-04-25 22:50 -33.78032 -54.90746 30461 ft 480 kts 30°
2026-04-25 22:50 -33.75512 -54.88111 30684 ft 482 kts 30°
2026-04-25 22:50 -33.72976 -54.85463 30902 ft 484 kts 30°
2026-04-25 22:51 -33.70426 -54.82805 31116 ft 486 kts 30°
2026-04-25 22:51 -33.67867 -54.80141 31334 ft 488 kts 30°
2026-04-25 22:51 -33.65302 -54.77468 31546 ft 489 kts 30°
2026-04-25 22:51 -33.62726 -54.74784 31729 ft 491 kts 30°
2026-04-25 22:52 -33.60143 -54.72094 31960 ft 492 kts 30°
2026-04-25 22:52 -33.58430 -54.70312 32135 ft 492 kts 30°
2026-04-25 22:52 -33.55843 -54.67621 32392 ft 492 kts 29°
2026-04-25 22:52 -33.53251 -54.64930 32616 ft 493 kts 29°
2026-04-25 22:53 -33.50655 -54.62239 32859 ft 494 kts 29°
2026-04-25 22:53 -33.48058 -54.59545 33142 ft 493 kts 29°
2026-04-25 22:53 -33.45465 -54.56860 33412 ft 493 kts 29°
2026-04-25 22:53 -33.42873 -54.54180 33653 ft 493 kts 28°
2026-04-25 22:54 -33.40275 -54.51495 33900 ft 493 kts 28°
2026-04-25 22:54 -33.37674 -54.48808 34110 ft 493 kts 28°
2026-04-25 22:54 -33.35077 -54.46129 34292 ft 494 kts 28°
2026-04-25 22:54 -33.32471 -54.43444 34490 ft 495 kts 28°
2026-04-25 22:55 -33.29871 -54.40766 34743 ft 494 kts 28°
2026-04-25 22:55 -33.27265 -54.38082 35001 ft 493 kts 28°
2026-04-25 22:55 -33.24700 -54.35442 35228 ft 492 kts 28°
2026-04-25 22:55 -33.22072 -54.32741 35418 ft 493 kts 28°
2026-04-25 22:56 -33.19507 -54.30108 35613 ft 493 kts 28°
2026-04-25 22:56 -33.16909 -54.27444 35827 ft 492 kts 28°
2026-04-25 22:56 -33.14308 -54.24778 36046 ft 492 kts 28°
2026-04-25 22:56 -33.11716 -54.22122 36234 ft 492 kts 28°
2026-04-25 22:57 -33.09120 -54.19465 36403 ft 492 kts 28°
2026-04-25 22:57 -33.06521 -54.16809 36600 ft 492 kts 28°
2026-04-25 22:57 -33.03921 -54.14152 36808 ft 491 kts 28°
2026-04-25 22:57 -33.01329 -54.11504 36975 ft 492 kts 28°
2026-04-25 22:58 -32.96073 -54.06158 36975 ft 500 kts 28°
2026-04-25 22:58 -32.90741 -54.00735 36931 ft 508 kts 28°
2026-04-25 22:59 -32.85348 -53.95259 37149 ft 507 kts 34°
2026-04-25 22:59 -32.82674 -53.92549 36930 ft 506 kts 28°
2026-04-25 22:59 -32.79989 -53.89820 36971 ft 509 kts 27°
2026-04-25 23:00 -32.74563 -53.84316 36983 ft 516 kts 28°
2026-04-25 23:00 -32.69071 -53.78758 36981 ft 521 kts 28°
2026-04-25 23:01 -32.63580 -53.73208 36962 ft 523 kts 28°
2026-04-25 23:01 -32.58029 -53.67606 36912 ft 524 kts 27°
2026-04-25 23:02 -32.52478 -53.62014 36971 ft 524 kts 27°
2026-04-25 23:02 -32.46922 -53.56430 36975 ft 523 kts 27°
2026-04-25 23:03 -32.41448 -53.50690 36975 ft 527 kts 30°
2026-04-25 23:03 -32.36066 -53.44788 36977 ft 527 kts 30°
2026-04-25 23:04 -32.30689 -53.38903 36981 ft 526 kts 30°
2026-04-25 23:04 -32.25298 -53.33068 36976 ft 525 kts 30°
2026-04-25 23:05 -32.19904 -53.27262 36979 ft 524 kts 29°
2026-04-25 23:05 -32.14505 -53.21461 36972 ft 525 kts 29°
2026-04-25 23:06 -32.09105 -53.15664 36981 ft 525 kts 29°
2026-04-25 23:06 -32.03692 -53.09862 36981 ft 526 kts 29°
2026-04-25 23:07 -31.98266 -53.04056 36982 ft 527 kts 29°
2026-04-25 23:07 -31.92837 -52.98254 36969 ft 528 kts 28°
2026-04-25 23:08 -31.87396 -52.92449 36951 ft 527 kts 28°
2026-04-25 23:08 -31.81989 -52.86690 36974 ft 529 kts 28°
2026-04-25 23:09 -31.76528 -52.80886 36981 ft 530 kts 28°
2026-04-25 23:09 -31.71059 -52.75080 36951 ft 530 kts 28°
2026-04-25 23:10 -31.65586 -52.69276 36970 ft 530 kts 28°
2026-04-25 23:10 -31.60112 -52.63479 36980 ft 529 kts 28°
2026-04-25 23:11 -31.54637 -52.57695 36958 ft 529 kts 28°
2026-04-25 23:11 -31.49170 -52.51930 36953 ft 529 kts 28°
2026-04-25 23:12 -31.43692 -52.46154 36977 ft 530 kts 28°
2026-04-25 23:12 -31.38207 -52.40378 36981 ft 531 kts 28°
2026-04-25 23:13 -31.32714 -52.34599 36986 ft 531 kts 28°
2026-04-25 23:13 -31.27246 -52.28857 36975 ft 532 kts 28°
2026-04-25 23:14 -31.21747 -52.23089 36950 ft 531 kts 28°
2026-04-25 23:14 -31.16252 -52.17337 36972 ft 531 kts 28°
2026-04-25 23:15 -31.10743 -52.11583 36982 ft 532 kts 28°
2026-04-25 23:15 -31.05222 -52.05823 36973 ft 533 kts 28°
2026-04-25 23:16 -30.99695 -52.00067 36973 ft 533 kts 28°
2026-04-25 23:16 -30.94190 -51.94343 36975 ft 534 kts 28°
2026-04-25 23:17 -30.88644 -51.88583 36976 ft 534 kts 28°
2026-04-25 23:17 -30.83107 -51.82841 36967 ft 533 kts 28°
2026-04-25 23:18 -30.77560 -51.77101 36972 ft 534 kts 29°
2026-04-25 23:18 -30.72009 -51.71365 36964 ft 534 kts 29°
2026-04-25 23:19 -30.66446 -51.65625 36984 ft 535 kts 29°
2026-04-25 23:19 -30.60871 -51.59879 36967 ft 535 kts 28°
2026-04-25 23:20 -30.55293 -51.54138 36971 ft 535 kts 29°
2026-04-25 23:20 -30.49698 -51.48459 36942 ft 533 kts 28°
2026-04-25 23:21 -30.44072 -51.42873 36969 ft 532 kts 28°
2026-04-25 23:21 -30.38447 -51.37300 36964 ft 533 kts 28°
2026-04-25 23:22 -30.32856 -51.31745 36951 ft 533 kts 28°
2026-04-25 23:23 -30.24424 -51.23368 36972 ft 533 kts 28°
2026-04-25 23:23 -30.18800 -51.17792 36954 ft 533 kts 28°
2026-04-25 23:24 -30.13180 -51.12228 36948 ft 531 kts 29°
2026-04-25 23:24 -30.07558 -51.06674 36940 ft 532 kts 28°
2026-04-25 23:25 -30.01931 -51.01124 36966 ft 532 kts 28°
2026-04-25 23:25 -29.96308 -50.95581 36973 ft 532 kts 28°
2026-04-25 23:26 -29.90678 -50.90039 36970 ft 532 kts 28°
2026-04-25 23:26 -29.84991 -50.84638 36969 ft 526 kts 25°
2026-04-25 23:27 -29.79157 -50.79601 36969 ft 523 kts 24°
2026-04-25 23:27 -29.73324 -50.74610 36989 ft 522 kts 24°
2026-04-25 23:28 -29.67516 -50.69575 36977 ft 524 kts 25°
2026-04-25 23:28 -29.61710 -50.64517 36957 ft 524 kts 25°
2026-04-25 23:29 -29.55899 -50.59465 36986 ft 524 kts 25°
2026-04-25 23:29 -29.50256 -50.54068 36979 ft 537 kts 35°
2026-04-25 23:30 -29.45124 -50.47797 37005 ft 540 kts 38°
2026-04-25 23:30 -29.40068 -50.41486 36991 ft 541 kts 37°
2026-04-25 23:31 -29.34935 -50.35204 37002 ft 539 kts 37°
2026-04-25 23:31 -29.29733 -50.28925 36999 ft 539 kts 37°
2026-04-25 23:32 -29.24597 -50.22748 37001 ft 539 kts 37°
2026-04-25 23:32 -29.19424 -50.16531 36988 ft 539 kts 37°
2026-04-25 23:33 -29.14260 -50.10323 37001 ft 538 kts 37°
2026-04-25 23:33 -29.09109 -50.04141 36992 ft 537 kts 37°
2026-04-25 23:34 -29.03953 -49.97963 37007 ft 536 kts 37°
2026-04-25 23:34 -28.98794 -49.91792 37025 ft 537 kts 37°
2026-04-25 23:35 -28.93617 -49.85604 36950 ft 539 kts 37°
2026-04-25 23:35 -28.88465 -49.79424 36980 ft 537 kts 38°
2026-04-25 23:36 -28.83440 -49.73109 36969 ft 538 kts 39°
2026-04-25 23:36 -28.78460 -49.66760 36967 ft 537 kts 39°
2026-04-25 23:37 -28.73464 -49.60438 36949 ft 536 kts 39°
2026-04-25 23:37 -28.68471 -49.54162 36975 ft 534 kts 39°
2026-04-25 23:38 -28.63485 -49.47911 36973 ft 533 kts 39°
2026-04-25 23:38 -28.58508 -49.41672 36970 ft 532 kts 39°
2026-04-25 23:39 -28.53529 -49.35441 36980 ft 532 kts 39°
2026-04-25 23:39 -28.48558 -49.29226 36967 ft 531 kts 39°
2026-04-25 23:40 -28.43583 -49.23028 36963 ft 531 kts 39°
2026-04-25 23:40 -28.39434 -49.17895 36988 ft 530 kts 39°
2026-04-25 23:41 -28.33638 -49.10726 36982 ft 530 kts 39°
2026-04-25 23:41 -28.29464 -49.05562 36965 ft 529 kts 39°
2026-04-25 23:42 -28.24558 -48.99426 36983 ft 528 kts 40°
2026-04-25 23:42 -28.19672 -48.93219 36988 ft 527 kts 40°
2026-04-25 23:43 -28.14746 -48.87061 36974 ft 528 kts 39°
2026-04-25 23:43 -28.09805 -48.80910 36967 ft 526 kts 39°
2026-04-25 23:44 -28.04888 -48.74777 36982 ft 526 kts 39°
2026-04-25 23:44 -27.99966 -48.68642 36971 ft 527 kts 39°
2026-04-25 23:45 -27.95031 -48.62501 36953 ft 528 kts 40°
2026-04-25 23:45 -27.90088 -48.56357 36945 ft 527 kts 40°
2026-04-25 23:46 -27.85151 -48.50226 36942 ft 527 kts 40°
2026-04-25 23:46 -27.80218 -48.44112 36946 ft 526 kts 40°
2026-04-25 23:47 -27.75290 -48.38012 36948 ft 525 kts 40°
2026-04-25 23:47 -27.70367 -48.31924 36946 ft 525 kts 40°
2026-04-25 23:48 -27.65439 -48.25847 36952 ft 525 kts 40°
2026-04-25 23:48 -27.60539 -48.19815 36946 ft 524 kts 40°
2026-04-25 23:49 -27.55622 -48.13762 36956 ft 523 kts 40°
2026-04-25 23:49 -27.50702 -48.07715 36944 ft 523 kts 40°
2026-04-25 23:50 -27.45787 -48.01674 36949 ft 523 kts 40°
2026-04-25 23:50 -27.40871 -47.95643 36951 ft 522 kts 40°
2026-04-25 23:51 -27.35947 -47.89633 36955 ft 522 kts 40°
2026-04-25 23:51 -27.30994 -47.83643 36950 ft 523 kts 40°
2026-04-25 23:52 -27.26040 -47.77658 36944 ft 523 kts 40°
2026-04-25 23:52 -27.21083 -47.71668 36954 ft 523 kts 40°
2026-04-25 23:53 -27.16125 -47.65681 36947 ft 524 kts 40°
2026-04-25 23:53 -27.11167 -47.59702 36951 ft 523 kts 40°
2026-04-25 23:54 -27.06201 -47.53722 36943 ft 523 kts 40°
2026-04-25 23:54 -27.01245 -47.47762 36942 ft 522 kts 40°
2026-04-25 23:55 -26.96316 -47.41842 36943 ft 522 kts 40°
2026-04-25 23:55 -26.91357 -47.35891 36943 ft 522 kts 40°
2026-04-25 23:56 -26.86395 -47.29954 36940 ft 521 kts 40°
2026-04-25 23:56 -26.81422 -47.24045 36942 ft 521 kts 40°
2026-04-25 23:57 -26.76448 -47.18134 36942 ft 521 kts 40°
2026-04-25 23:57 -26.71479 -47.12231 36942 ft 521 kts 40°
2026-04-25 23:58 -26.66538 -47.06319 36934 ft 520 kts 41°
2026-04-25 23:58 -26.61609 -47.00409 36937 ft 520 kts 41°
2026-04-25 23:59 -26.56660 -46.94537 36937 ft 519 kts 40°
2026-04-25 23:59 -26.51679 -46.88710 36939 ft 518 kts 40°
2026-04-26 00:00 -26.46739 -46.82924 36939 ft 518 kts 40°
2026-04-26 00:00 -26.41774 -46.77103 36942 ft 517 kts 40°
2026-04-26 00:01 -26.36811 -46.71297 36946 ft 517 kts 40°
2026-04-26 00:01 -26.31844 -46.65501 36938 ft 517 kts 40°
2026-04-26 00:02 -26.26872 -46.59701 36935 ft 517 kts 40°
2026-04-26 00:02 -26.21910 -46.53914 36931 ft 516 kts 40°
2026-04-26 00:03 -26.16949 -46.48136 36939 ft 516 kts 40°
2026-04-26 00:03 -26.11982 -46.42359 36946 ft 516 kts 40°
2026-04-26 00:04 -26.07014 -46.36588 36932 ft 516 kts 40°
2026-04-26 00:04 -26.02045 -46.30825 36945 ft 516 kts 40°
2026-04-26 00:05 -25.97063 -46.25053 36934 ft 516 kts 40°
2026-04-26 00:05 -25.92090 -46.19299 36942 ft 516 kts 40°
2026-04-26 00:06 -25.87107 -46.13541 36946 ft 517 kts 40°
2026-04-26 00:06 -25.82122 -46.07788 36929 ft 517 kts 40°
2026-04-26 00:07 -25.77169 -46.02077 36935 ft 516 kts 40°
2026-04-26 00:07 -25.72187 -45.96336 36934 ft 516 kts 40°
2026-04-26 00:08 -25.67205 -45.90606 36941 ft 516 kts 40°
2026-04-26 00:08 -25.62217 -45.84886 36938 ft 516 kts 40°
2026-04-26 00:09 -25.57220 -45.79167 36937 ft 516 kts 40°
2026-04-26 00:09 -25.52233 -45.73463 36930 ft 515 kts 40°
2026-04-26 00:10 -25.47249 -45.67766 36932 ft 515 kts 40°
2026-04-26 00:10 -25.42269 -45.62080 36938 ft 514 kts 40°
2026-04-26 00:11 -25.37290 -45.56400 36936 ft 514 kts 40°
2026-04-26 00:11 -25.32312 -45.50732 36945 ft 513 kts 40°
2026-04-26 00:12 -25.27337 -45.45073 36937 ft 513 kts 40°
2026-04-26 00:12 -25.22356 -45.39414 36935 ft 514 kts 40°
2026-04-26 00:13 -25.17371 -45.33758 36945 ft 513 kts 40°
2026-04-26 00:13 -25.12392 -45.28115 36931 ft 513 kts 40°
2026-04-26 00:14 -25.07415 -45.22479 36939 ft 512 kts 40°
2026-04-26 00:14 -25.02475 -45.16896 36936 ft 511 kts 40°
2026-04-26 00:15 -24.97509 -45.11287 36943 ft 511 kts 40°
2026-04-26 00:15 -24.92544 -45.05688 36941 ft 511 kts 40°
2026-04-26 00:16 -24.87577 -45.00094 36947 ft 510 kts 40°
2026-04-26 00:16 -24.82608 -44.94505 36949 ft 510 kts 40°
2026-04-26 00:17 -24.77647 -44.88932 36939 ft 509 kts 40°
2026-04-26 00:17 -24.72692 -44.83370 36943 ft 508 kts 40°
2026-04-26 00:18 -24.67747 -44.77826 36949 ft 508 kts 40°
2026-04-26 00:18 -24.62797 -44.72280 36943 ft 507 kts 40°
2026-04-26 00:19 -24.57856 -44.66751 36950 ft 507 kts 40°
2026-04-26 00:19 -24.52949 -44.61263 36941 ft 498 kts 40°
2026-04-26 00:19 -24.50461 -44.58591 36646 ft 503 kts 35°
2026-04-26 00:20 -24.47680 -44.56274 36267 ft 499 kts 26°
2026-04-26 00:20 -24.44672 -44.54456 35858 ft 490 kts 21°
2026-04-26 00:20 -24.41635 -44.52796 35436 ft 485 kts 20°
2026-04-26 00:20 -24.38624 -44.51173 35015 ft 480 kts 20°
2026-04-26 00:21 -24.35647 -44.49559 34609 ft 476 kts 20°
2026-04-26 00:21 -24.32728 -44.47959 34180 ft 474 kts 21°
2026-04-26 00:21 -24.29786 -44.46331 33733 ft 472 kts 21°
2026-04-26 00:21 -24.26871 -44.44706 33305 ft 470 kts 21°
2026-04-26 00:22 -24.23915 -44.43058 32898 ft 484 kts 21°
2026-04-26 00:22 -24.20867 -44.41361 32462 ft 498 kts 21°
2026-04-26 00:22 -24.17762 -44.39628 31998 ft 501 kts 22°
2026-04-26 00:22 -24.14670 -44.37896 31554 ft 497 kts 22°
2026-04-26 00:23 -24.11586 -44.36171 31124 ft 502 kts 22°
2026-04-26 00:23 -24.08428 -44.34413 30669 ft 515 kts 22°
2026-04-26 00:23 -24.05227 -44.32630 30193 ft 516 kts 22°
2026-04-26 00:23 -24.02033 -44.30845 29675 ft 513 kts 22°
2026-04-26 00:24 -23.98873 -44.29081 29198 ft 508 kts 22°
2026-04-26 00:24 -23.95734 -44.27335 28719 ft 503 kts 22°
2026-04-26 00:24 -23.92727 -44.25385 28228 ft 505 kts 33°
2026-04-26 00:24 -23.90110 -44.22821 27816 ft 505 kts 44°
2026-04-26 00:25 -23.87940 -44.19799 27341 ft 506 kts 56°
2026-04-26 00:25 -23.86294 -44.16353 26891 ft 520 kts 65°
2026-04-26 00:25 -23.84805 -44.12707 26364 ft 527 kts 65°
2026-04-26 00:25 -23.83106 -44.09182 25838 ft 522 kts 52°
2026-04-26 00:26 -23.80611 -44.06403 25377 ft 508 kts 32°
2026-04-26 00:26 -23.77591 -44.04504 24911 ft 496 kts 20°
2026-04-26 00:26 -23.75470 -44.03629 24588 ft 490 kts 12°
2026-04-26 00:26 -23.72167 -44.02956 24145 ft 478 kts
2026-04-26 00:27 -23.68863 -44.02768 23694 ft 473 kts 358°
2026-04-26 00:27 -23.64474 -44.02600 23016 ft 470 kts 358°
2026-04-26 00:27 -23.62318 -44.02497 22709 ft 467 kts 358°
2026-04-26 00:27 -23.59081 -44.02307 22253 ft 464 kts 359°
2026-04-26 00:28 -23.55871 -44.02097 21824 ft 460 kts 359°
2026-04-26 00:28 -23.52695 -44.01885 21458 ft 455 kts 359°
2026-04-26 00:28 -23.49550 -44.01682 21092 ft 451 kts 359°
2026-04-26 00:28 -23.46420 -44.01483 20975 ft 451 kts 359°
2026-04-26 00:29 -23.43309 -44.01288 20946 ft 441 kts 359°
2026-04-26 00:29 -23.40295 -44.01097 20934 ft 428 kts 359°
2026-04-26 00:29 -23.37352 -44.00911 20932 ft 417 kts 359°
2026-04-26 00:29 -23.34533 -44.00729 20917 ft 393 kts 358°
2026-04-26 00:30 -23.31912 -44.00559 20724 ft 375 kts 358°
2026-04-26 00:30 -23.29308 -44.00396 20095 ft 374 kts 358°
2026-04-26 00:30 -23.26682 -44.00237 19570 ft 382 kts 358°
2026-04-26 00:30 -23.24009 -44.00076 19050 ft 387 kts 358°
2026-04-26 00:31 -23.21316 -43.99909 18518 ft 387 kts 359°
2026-04-26 00:31 -23.18648 -43.99740 18034 ft 380 kts 359°
2026-04-26 00:31 -23.16026 -43.99573 17525 ft 374 kts 359°
2026-04-26 00:31 -23.13449 -43.99410 17015 ft 368 kts 359°
2026-04-26 00:32 -23.10911 -43.99250 16510 ft 363 kts 360°
2026-04-26 00:32 -23.08396 -43.99092 16030 ft 362 kts
2026-04-26 00:32 -23.03288 -43.98770 15127 ft 369 kts
2026-04-26 00:33 -23.00730 -43.98610 14762 ft 367 kts
2026-04-26 00:33 -22.98178 -43.98437 14389 ft 366 kts
2026-04-26 00:33 -22.95755 -43.97622 13964 ft 369 kts 30°
2026-04-26 00:33 -22.93861 -43.95772 13503 ft 367 kts 53°
2026-04-26 00:34 -22.92600 -43.93388 13006 ft 363 kts 66°
2026-04-26 00:34 -22.91583 -43.90885 12455 ft 363 kts 68°
2026-04-26 00:34 -22.90593 -43.88379 11912 ft 358 kts 68°
2026-04-26 00:34 -22.89621 -43.85922 11377 ft 351 kts 68°
2026-04-26 00:35 -22.88670 -43.83538 10856 ft 346 kts 68°
2026-04-26 00:35 -22.87712 -43.81159 10337 ft 342 kts 68°
2026-04-26 00:35 -22.86760 -43.78814 9830 ft 338 kts 68°
2026-04-26 00:35 -22.85820 -43.76503 9326 ft 332 kts 68°
2026-04-26 00:36 -22.84895 -43.74237 8868 ft 325 kts 67°
2026-04-26 00:36 -22.83988 -43.72016 8448 ft 319 kts 67°
2026-04-26 00:36 -22.83107 -43.69860 8192 ft 307 kts 67°
2026-04-26 00:36 -22.82256 -43.67779 7935 ft 297 kts 67°
2026-04-26 00:37 -22.81432 -43.65762 7641 ft 289 kts 66°
2026-04-26 00:37 -22.80626 -43.63791 7351 ft 283 kts 66°
2026-04-26 00:37 -22.79837 -43.61863 7053 ft 275 kts 66°
2026-04-26 00:37 -22.79075 -43.60006 6713 ft 265 kts 66°
2026-04-26 00:38 -22.78335 -43.58203 6380 ft 257 kts 66°
2026-04-26 00:38 -22.77622 -43.56467 6092 ft 249 kts 65°
2026-04-26 00:38 -22.76938 -43.54768 5843 ft 241 kts 66°
2026-04-26 00:38 -22.76307 -43.53169 5684 ft 224 kts 66°
2026-04-26 00:39 -22.75694 -43.51613 5284 ft 225 kts 66°
2026-04-26 00:39 -22.75083 -43.50060 4944 ft 222 kts 66°
2026-04-26 00:39 -22.74478 -43.48527 4550 ft 220 kts 66°
2026-04-26 00:39 -22.73882 -43.47023 4179 ft 213 kts 66°
2026-04-26 00:40 -22.73317 -43.45594 3932 ft 205 kts 66°
2026-04-26 00:40 -22.72755 -43.44172 3665 ft 205 kts 66°
2026-04-26 00:40 -22.72200 -43.42770 3401 ft 198 kts 66°
2026-04-26 00:40 -22.71857 -43.41363 3194 ft 195 kts 95°
2026-04-26 00:41 -22.72368 -43.40047 2985 ft 189 kts 121°
2026-04-26 00:41 -22.73009 -43.38824 2710 ft 181 kts 120°
2026-04-26 00:41 -22.73669 -43.37695 2468 ft 173 kts 124°
2026-04-26 00:41 -22.74334 -43.36672 2256 ft 163 kts 125°
2026-04-26 00:42 -22.74973 -43.35710 2039 ft 151 kts 125°
2026-04-26 00:42 -22.75609 -43.34846 1916 ft 146 kts 128°
2026-04-26 00:42 -22.76232 -43.33975 1732 ft 145 kts 125°
2026-04-26 00:42 -22.76817 -43.33093 1542 ft 144 kts 123°
2026-04-26 00:43 -22.77383 -43.32203 1344 ft 143 kts 123°
2026-04-26 00:43 -22.77964 -43.31323 1125 ft 143 kts 125°
2026-04-26 00:43 -22.78539 -43.30454 935 ft 141 kts 125°
2026-04-26 00:43 -22.79118 -43.29587 771 ft 143 kts 124°
2026-04-26 00:44 -22.79694 -43.28711 619 ft 143 kts 125°
2026-04-26 00:44 -22.80268 -43.27834 427 ft 144 kts 125°
2026-04-26 00:44 -22.80850 -43.26962 239 ft 142 kts 125°
2026-04-26 00:44 -22.81425 -43.26095 45 ft 142 kts 125°
2026-04-26 00:45 -22.81949 -43.25305 26 ft 103 kts 125°
2026-04-26 00:45 -22.82238 -43.24868 26 ft 39 kts 126°
2026-04-26 00:45 -22.82317 -43.24733 27 ft 12 kts 118°
2026-04-26 00:45 -22.82346 -43.24651 25 ft 11 kts 104°
2026-04-26 00:46 -22.82359 -43.24567 25 ft 11 kts 97°
2026-04-26 00:46 -22.82367 -43.24485 28 ft 11 kts 91°
2026-04-26 00:46 -22.82330 -43.24419 29 ft 11 kts 37°
2026-04-26 00:46 -22.82271 -43.24373 25 ft 10 kts 35°
2026-04-26 00:47 -22.82214 -43.24328 26 ft 10 kts 36°
2026-04-26 00:47 -22.82153 -43.24298 25 ft 10 kts 357°
2026-04-26 00:47 -22.82096 -43.24348 26 ft 12 kts 306°
2026-04-26 00:47 -22.82043 -43.24358 28 ft 8 kts 11°
2026-04-26 00:48 -22.81988 -43.24352 25 ft 8 kts
2026-04-26 00:48 -22.81961 -43.24350 25 ft 0 kts